Weather in Prigorodnoe

Russia / Karachay-Cherkess Republic     44°14′11″N   42°06′56″E
temp.,
°C
wind,
m/s
gust,
m/s
humid.,
%
clouds,
%
prec.,
mm/h
press.,
hPa
HPBL,
m
10 may, mon
mon1000:00+4w6148928 0.0 1023580
03:00+3wsw6138358 0.0 1024413
06:00+4wsw613804 0.0 1023665
09:00+8wnw9126362 0.1 10221625
12:00+10wnw9124976 0.3 10202086
15:00+10wnw9125593 0.3 10192007
18:00+7wnw61272100 0.1 10201374
21:00+5w497198 0.1 1021613
11 may, tue
tue1100:00+2ssw228722 0.0 101919
03:00+1s4664100 0.0 1019101
06:00+4sse2563100 0.0 1017141
09:00+9ese3553100 0.0 1016769
12:00+11e2349100 0.0 10151402
15:00+9ese3470100 0.4 1017939
18:00+8ene4883100 0.6 1017491
21:00+6e238796 0.6 101752
12 may, wed
wed1200:00+4s22915 0.0 101717
03:00+3sw22905 0.0 101716
06:00+4sw11804 0.0 101844
09:00+10ene22685 0.0 1016567
12:00+15e455995 0.0 10151108
15:00+17e675885 0.0 10141142
18:00+15e61071100 0.0 1014610
21:00+9ese24895 0.0 101470
13 may, thu
thu1300:00+8s22900 0.0 101414
03:00+8s22750 0.0 101414
06:00+9s226898 0.0 101429
09:00+18e22534 0.0 1013363
12:00+21e44501 0.0 1012701
15:00+23e675612 0.0 1012863
18:00+20e610733 0.0 1012458
21:00+14se239085 0.0 101347
14 may, fri
fri1400:00+14sse229031 0.0 101320
03:00+13s33710 0.0 101326
06:00+14s34645 0.0 101440
09:00+23sse12475 0.0 1012294
12:00+27e22415 0.0 1012704
15:00+27e44476 0.0 1011999
18:00+22e487599 0.0 1011306
21:00+17se22899 0.0 101212